Theta_e
339 340 340 338 339 340 339 338 337 337 336 336 340 346 349 350 351 350 352 350 351 348 350 352 351 349 352 353 353 353 354 353 354 354 353 351 350 349 349 350 349 348 349 348
339 340 340 339 337 337 337 335 336 336 335 335 339 343 347 348 347 350 353 352 350 350 349 349 350 352 349 354 354 355 355 356 355 354 353 353 351 350 349 351 351 351 351 349
339 342 338 339 336 335 336 335 338 337 335 334 337 338 352 347 344 349 349 351 346 350 350 352 349 349 350 354 355 358 358 358 357 357 354 354 354 352 352 344 353 353 351 351
337 339 338 338 337 335 336 337 334 334 334 335 334 338 347 340 346 345 348 349 339 346 351 353 351 350 350 356 356 358 359 361 359 358 357 355 353 349 352 350 348 352 352 349
335 334 336 335 335 334 336 335 333 332 333 334 336 335 346 344 341 346 345 350 353 352 351 351 352 351 351 353 356 359 360 361 361 360 358 356 356 356 355 354 353 351 354 353
330 330 330 331 334 335 334 333 333 332 333 334 334 336 345 353 353 349 345 347 351 352 351 352 350 351 352 354 355 357 362 363 361 363 361 357 356 354 354 352 353 356 356 355
328 332 330 331 334 334 334 333 333 335 334 335 340 344 351 350 346 347 349 349 347 349 350 353 353 352 352 354 355 357 363 365 365 364 363 362 359 356 356 356 352 354 355 353
330 333 331 333 335 334 332 331 332 339 341 344 344 350 350 343 340 344 346 347 347 346 349 350 353 354 353 354 354 356 364 365 365 365 364 363 364 362 361 358 354 353 354 353
332 333 331 333 332 332 333 334 333 332 333 340 345 352 350 346 343 344 351 349 347 346 347 353 353 354 355 355 355 355 362 364 365 365 364 364 363 360 361 358 357 360 358 355
332 335 334 334 333 333 332 333 334 332 338 343 355 351 367 356 353 347 352 350 348 350 352 353 353 356 356 356 357 356 361 362 363 363 363 363 361 360 358 360 359 359 352 352
332 335 337 337 334 333 332 332 333 335 337 343 352 346 353 347 344 347 354 357 357 358 358 357 356 356 356 356 356 357 359 361 361 360 360 359 360 359 359 358 357 349 354 355
333 335 339 337 339 335 333 332 334 334 342 339 346 346 347 347 349 357 358 358 357 357 357 357 357 361 363 362 361 361 359 359 359 358 359 359 356 353 351 350 352 352 344 342
337 340 349 346 339 340 341 339 334 335 335 343 340 354 343 341 340 350 362 360 360 360 359 359 359 358 356 357 359 358 357 357 357 355 353 348 349 347 342 341 342 343 341 342
335 338 342 353 349 342 344 339 338 334 335 335 335 346 345 344 356 352 358 355 355 354 354 350 349 348 346 345 344 343 342 342 342 341 341 341 341 342 342 342 341 342 343 343
334 341 343 341 341 340 341 336 338 336 336 337 336 334 350 348 352 359 356 353 351 350 348 348 346 348 346 344 342 341 340 339 340 340 339 340 340 341 342 342 341 342 342 344
335 337 343 344 341 341 342 337 335 334 334 334 331 331 343 338 357 359 354 354 351 350 348 346 347 344 344 343 342 338 338 339 339 339 338 338 337 339 341 341 341 341 340 340
334 335 341 342 340 340 341 339 335 333 332 330 330 341 345 344 340 354 354 352 350 348 347 348 344 342 341 338 336 335 335 335 334 336 336 337 337 337 338 338 339 340 340 341
336 337 337 338 336 337 334 336 334 333 331 330 334 337 343 345 344 347 352 351 350 348 346 345 341 339 337 335 335 335 335 335 335 336 336 336 336 337 338 339 339 340 340 340
331 332 334 335 335 335 334 334 334 332 333 332 335 340 341 343 342 349 348 347 348 345 343 339 338 336 335 334 334 334 335 334 335 336 337 337 337 339 339 338 338 338 338 339
334 333 333 334 334 336 337 333 332 331 333 337 334 339 340 338 343 349 344 341 343 340 338 336 335 334 334 333 332 333 334 335 335 335 334 334 334 335 335 335 335 334 334 336
334 335 336 336 334 333 334 334 332 334 340 336 336 338 338 342 343 339 337 337 335 334 333 332 332 332 332 332 332 333 333 333 335 335 335 334 334 334 333 332 333 334 334 335
334 334 334 335 339 336 335 334 337 341 338 337 339 339 340 340 338 336 334 333 332 331 331 330 331 331 331 333 333 333 334 333 331 331 330 331 332 331 330 330 331 331 332 332
335 333 335 334 344 340 337 337 335 337 338 337 337 335 335 334 333 333 332 331 330 329 330 329 331 331 331 328 327 328 328 328 330 330 330 329 329 328 328 328 330 330 330 331
333 333 334 333 337 337 335 334 334 335 336 335 333 332 332 333 332 331 330 329 329 329 330 328 327 325 324 323 323 323 322 321 323 326 326 325 325 324 324 325 325 327 328 329
334 336 335 333 339 337 335 335 335 334 332 332 332 331 330 330 330 329 329 328 326 325 324 322 321 320 319 319 319 319 319 319 320 320 320 321 321 321 321 322 324 325 325 325
331 333 333 334 340 340 338 335 333 333 334 332 329 330 329 327 326 324 323 322 322 320 320 319 319 318 317 316 316 316 317 315 315 314 315 316 315 316 316 317 319 321 323 323
Wind_Speed
15 14 17 20 5 5 9 7 6 9 9 5 6 13 18 15 15 15 16 17 16 13 17 26 24 22 29 24 21 18 18 21 20 15 15 15 13 13 14 15 13 11 14 12
14 17 9 13 2 5 10 6 7 10 10 9 10 11 19 17 13 15 21 16 16 16 15 15 22 26 21 22 20 20 17 18 17 17 16 13 11 10 23 19 10 10 11 14
13 16 11 10 6 9 10 13 8 10 10 9 7 6 17 18 13 15 14 17 16 9 17 17 17 20 20 24 21 22 19 19 19 17 15 11 12 11 12 15 10 12 11 13
13 25 9 10 9 12 11 14 4 4 8 9 16 10 10 12 15 13 16 26 28 24 18 17 17 17 17 25 23 23 21 19 19 17 13 12 8 9 13 17 16 15 17 17
12 11 15 10 10 13 1 11 7 7 10 15 18 12 15 14 10 13 15 19 22 28 21 17 16 19 21 22 23 23 24 21 17 19 17 11 13 16 10 13 17 14 16 20
17 10 14 6 14 16 5 3 12 11 11 12 16 17 14 7 2 7 15 12 27 25 19 18 19 20 19 22 22 22 24 21 20 17 15 16 11 13 4 10 12 11 15 18
13 10 10 15 17 10 10 11 10 11 11 13 11 11 4 10 5 9 21 18 14 8 18 18 16 18 17 21 19 21 24 19 17 17 15 14 14 13 11 7 10 14 16 12
12 12 13 11 12 9 14 17 11 11 4 8 14 5 5 15 22 24 23 11 12 13 16 19 17 21 20 22 17 17 23 18 16 16 15 13 12 11 12 13 13 14 15 13
9 13 20 16 13 13 13 13 15 16 17 3 3 8 23 10 12 22 12 13 15 15 6 17 17 21 20 22 18 16 22 18 16 14 13 13 10 9 11 9 8 10 11 14
16 12 19 17 13 14 15 16 12 9 11 7 5 1 9 8 19 29 12 15 12 8 10 12 12 15 14 14 19 17 22 19 15 13 15 12 9 9 9 9 9 9 10 11
15 5 2 12 4 14 12 14 14 17 6 2 3 3 12 14 9 25 25 8 9 11 10 8 7 10 11 7 9 16 12 13 7 7 10 5 4 5 6 6 8 9 8 9
14 12 7 10 16 20 11 14 9 9 4 10 4 10 13 18 19 17 16 12 13 15 14 11 11 17 19 17 17 17 21 18 13 8 7 5 5 1 5 10 8 8 3 7
8 5 4 9 19 22 9 21 11 9 11 8 9 2 13 9 20 11 12 11 11 12 13 15 12 11 13 13 12 13 19 14 14 11 12 9 6 3 3 6 6 6 9 10
4 2 10 5 7 14 13 17 18 7 9 14 12 13 17 17 10 28 11 13 13 12 12 13 12 12 15 13 12 13 11 10 8 9 9 8 4 6 8 12 12 13 14 14
4 11 15 7 16 23 19 2 23 9 11 11 15 18 19 25 26 21 22 16 12 11 12 12 11 8 11 11 10 10 8 5 5 3 3 4 5 7 10 13 15 15 16 17
8 9 20 19 22 28 30 18 15 14 14 16 13 12 15 13 18 23 15 17 15 13 12 12 11 11 11 10 9 7 3 2 1 3 5 6 7 8 9 11 13 16 19 21
8 8 7 11 13 19 23 21 4 7 11 11 9 10 11 12 9 9 16 14 13 12 12 5 9 8 9 7 5 4 6 3 3 4 7 8 10 11 13 15 17 17 19 21
3 2 6 8 10 12 14 6 1 5 8 9 4 8 9 9 9 15 16 11 9 10 7 5 6 6 6 4 6 10 10 10 9 8 9 12 13 14 15 16 17 19 21 23
10 5 4 6 10 14 14 6 3 1 5 7 0 6 3 6 3 14 14 13 11 10 6 3 4 3 2 5 8 9 9 11 13 13 13 13 14 14 14 17 19 21 23 25
3 8 6 9 10 15 16 9 9 7 5 10 4 6 8 2 3 8 9 6 9 7 4 1 4 7 9 11 12 12 12 12 13 16 15 14 15 16 18 20 23 27 28 28
6 4 6 8 10 10 5 10 4 5 5 7 5 6 4 9 9 7 9 10 11 12 12 12 11 11 11 12 13 13 14 15 16 16 14 15 17 19 21 25 24 25 24 25
8 9 8 10 13 6 11 4 3 4 5 7 11 11 10 11 7 6 7 7 8 10 13 14 14 15 18 20 21 19 18 21 22 21 21 20 19 21 25 26 27 26 26 27
5 4 5 6 4 4 6 7 6 10 10 8 8 10 7 6 8 9 8 10 12 15 16 17 17 18 20 22 22 20 22 27 24 20 20 21 19 19 23 23 25 24 23 25
4 6 2 6 7 5 5 4 5 9 11 10 10 9 7 7 8 9 9 9 11 13 15 16 16 17 18 20 21 21 23 25 24 22 21 21 20 22 24 23 24 23 21 23
4 2 1 6 8 7 5 7 9 11 10 10 8 8 8 7 7 8 8 9 12 13 14 15 15 15 17 18 19 20 21 22 20 20 21 22 22 22 25 26 23 25 26 26
6 6 8 3 8 4 9 11 9 8 8 7 4 5 7 6 7 8 6 9 12 12 12 13 13 14 16 17 18 19 16 17 19 20 21 21 24 24 25 25 28 30 30 31
Wind_Direction
217 240 241 37 340 118 272 189 144 112 137 244 245 156 164 183 181 165 166 164 162 172 164 159 170 160 154 168 167 172 186 169 179 190 205 211 214 228 241 232 216 220 215 209
239 241 79 270 166 193 232 233 229 148 160 216 221 188 160 184 202 171 115 248 165 164 151 153 170 168 180 165 166 175 189 176 186 204 219 213 214 184 241 234 215 209 224 226
222 251 226 227 214 233 239 252 113 292 168 214 267 242 161 183 189 172 180 92 328 213 158 161 175 175 175 163 172 175 186 188 195 211 217 220 220 217 193 225 218 215 227 235
244 231 261 212 244 224 225 330 90 240 275 249 197 218 204 181 178 206 190 137 194 225 157 161 170 179 177 160 174 178 183 188 197 212 230 230 237 236 217 224 214 217 225 216
234 242 224 239 239 243 126 225 281 256 253 254 249 222 178 165 207 190 217 171 146 264 158 161 171 178 172 165 169 175 179 191 202 200 214 227 225 239 229 238 223 201 210 212
267 241 244 219 236 238 85 265 231 231 242 261 259 226 149 145 127 330 215 201 167 210 155 157 174 163 168 163 167 173 174 186 200 197 215 227 249 265 268 263 225 223 225 226
228 231 219 220 209 191 240 249 251 224 222 235 354 334 134 144 38 297 275 196 201 180 161 161 164 155 168 156 168 169 170 182 194 203 208 220 241 260 271 266 278 298 302 318
206 193 206 224 259 194 209 232 254 281 293 291 310 48 189 150 153 228 255 202 212 220 173 169 161 155 157 152 171 176 165 175 195 204 209 217 224 232 262 276 277 291 302 316
222 235 177 205 209 259 263 256 284 291 284 223 65 34 14 333 259 226 188 198 198 217 155 177 147 158 152 155 167 175 160 171 188 202 208 213 218 238 257 268 279 294 312 320
274 235 167 196 207 218 250 275 298 235 259 262 339 307 196 32 316 320 180 190 178 168 108 124 132 107 138 164 169 182 165 174 189 207 194 203 221 228 249 260 275 289 311 324
270 276 324 333 190 251 221 250 261 275 308 315 185 225 156 155 135 251 247 153 123 116 111 109 107 137 170 168 147 168 153 137 147 154 138 145 166 220 225 249 261 269 288 313
254 324 168 263 322 272 235 225 264 265 17 316 215 244 176 171 157 240 248 158 152 135 120 117 103 79 72 73 65 73 94 105 107 110 117 150 159 209 239 245 269 278 321 324
345 49 100 353 331 339 347 343 279 301 297 218 256 65 148 10 326 296 137 104 93 102 117 112 87 84 98 100 98 92 103 122 136 161 183 143 148 215 282 13 356 331 317 307
352 286 110 154 228 283 297 339 327 322 312 335 324 54 125 143 225 284 106 113 118 118 117 108 105 99 97 102 100 104 99 84 67 51 44 44 21 342 337 329 324 320 314 307
265 128 110 204 200 224 246 312 272 311 318 314 319 320 156 180 180 217 149 131 122 118 117 110 115 116 122 125 120 115 106 88 74 59 14 341 322 304 300 300 299 301 301 296
240 252 156 179 177 209 241 265 274 298 293 280 294 304 21 70 155 163 126 139 148 144 131 143 142 159 153 155 158 124 110 142 348 319 312 317 319 305 292 289 290 288 287 286
242 295 53 289 190 205 224 236 300 337 347 351 313 34 12 355 22 130 141 147 138 138 117 156 153 166 166 171 163 228 202 168 256 288 284 286 285 281 280 280 278 277 277 277
117 248 311 306 309 281 281 71 7 303 300 293 335 15 35 10 8 62 94 86 89 106 85 151 124 148 153 215 3 3 345 333 309 284 286 282 277 275 277 281 285 289 287 280
338 344 307 304 294 300 302 358 157 213 344 111 110 96 95 39 355 62 91 107 109 115 100 24 232 246 22 338 323 307 292 293 288 282 286 292 291 293 301 302 300 298 294 289
1 354 314 292 295 291 298 109 78 82 315 124 114 92 75 22 70 65 78 53 115 119 112 25 340 358 338 337 318 308 304 309 310 305 307 309 306 302 300 299 300 296 289 283
329 336 286 288 287 267 37 98 100 255 73 85 78 129 135 83 83 93 59 45 23 18 7 1 340 322 322 332 335 330 318 313 331 333 326 317 307 300 297 297 296 295 295 295
312 282 273 271 268 240 15 64 343 93 102 82 60 53 67 86 85 65 50 27 6 352 348 341 339 347 351 8 11 358 343 335 329 323 313 305 301 303 300 299 297 294 292 287
294 284 311 336 46 69 13 50 47 96 92 79 85 74 48 39 39 29 9 0 354 353 355 355 0 352 350 358 355 344 342 342 335 328 321 318 313 309 306 304 299 293 290 286
256 181 228 294 124 124 97 94 80 88 90 80 66 70 56 30 16 3 359 351 346 353 2 355 350 340 339 342 339 335 336 331 333 329 316 313 313 311 308 305 301 299 301 296
357 101 200 250 144 135 141 113 94 84 74 71 72 58 46 19 2 4 356 357 351 352 356 348 343 337 328 325 328 325 322 326 331 328 320 316 313 310 307 302 296 294 290 290
248 262 246 293 122 183 153 125 128 121 104 76 45 43 42 21 14 4 358 6 10 347 341 345 346 335 338 341 330 329 329 330 322 318 312 308 304 303 299 295 296 293 285 291